Akron Canton, OH

11:31 AM EDT on September 21, 2017 (GMT -0400)
Akron-Canton Regional

Weather History for KCAK - November, 2014

Change the Weather History Date:

Saturday, November 8, 2014

  Actual Average Record
Temperature  
Mean Temperature 40 °F 44 °F  
Max Temperature 48 °F 53 °F 71 °F (1916)
Min Temperature 31 °F 36 °F 18 °F (1976)
Degree Days  
Heating Degree Days 25 21  
Month to date heating degree days 168 156  
Since 1 July heating degree days 626 711  
Cooling Degree Days 0 0  
Month to date cooling degree days 0 0  
Year to date cooling degree days 719 652  
Moisture  
Dew Point 31 °F    
Average Humidity 69    
Maximum Humidity 82    
Minimum Humidity 56    
Precipitation  
Precipitation T in 0.10 in 0.39 in (1966)
Month to date precipitation 1.00 0.86  
Year to date precipitation 41.81 34.34  
Snow  
Snow 0.00 in 0.00 in - ()
Month to date snowfall T 0.4  
Since 1 July snowfall T 0.8  
Since 1 September snowfall T 0.8  
Snow Depth 0.00 in    
Sea Level Pressure  
Sea Level Pressure 29.90 in    
Wind  
Wind Speed 11 mph (SW)    
Max Wind Speed 21 mph    
Max Gust Speed 31 mph    
Visibility 10 miles    
Events      
T = Trace of Precipitation, MM = Missing Value Source: NWS Daily Summary

Daily Weather History Graph

Daily Weather History Graph

Search for Another Location

Airport or City:

Trip Planner

Search our weather history database for the weather conditions in past years. The results will help you decide how hot, cold, wet, or windy it might be!

Date:

Astronomy

Nov. 08, 2014 Rise Set
Actual Time 7:04 AM EST 5:13 PM EST
Civil Twilight 6:35 AM EST 5:42 PM EST
Nautical Twilight 6:02 AM EST 6:15 PM EST
Astronomical Twilight 5:30 AM EST 6:47 PM EST
Moon 6:53 PM EST (11/8) 8:40 AM EST (11/8)
Length of Visible Light 11h 07m
Length of Day
10h 09m
Waning Gibbous, 96% of the Moon is Illuminated
Nov 8
Waning Gibbous
Nov 14
Last Quarter
Nov 22
New
Nov 29
First Quarter
Dec 6
Full

Hourly Weather History & Observations

Time (EST) Temp. Windchill Dew Point Humidity Pressure Visibility Wind Dir Wind Speed Gust Speed Precip Events Conditions
12:51 AM 32.0 °F 26.4 °F 25.0 °F 75% 30.02 in 10.0 mi South 5.8 mph - N/A   Mostly Cloudy
1:51 AM 32.0 °F 26.4 °F 25.0 °F 75% 30.01 in 10.0 mi South 5.8 mph - N/A   Mostly Cloudy
2:51 AM 32.0 °F 26.4 °F 25.0 °F 75% 30.00 in 10.0 mi South 5.8 mph - N/A   Mostly Cloudy
3:51 AM 34.0 °F 27.2 °F 26.1 °F 73% 29.99 in 10.0 mi SSW 8.1 mph - N/A   Overcast
4:51 AM 34.0 °F 26.6 °F 26.1 °F 73% 29.97 in 10.0 mi South 9.2 mph - N/A   Overcast
5:51 AM 33.1 °F 24.9 °F 25.0 °F 72% 29.95 in 10.0 mi SSW 10.4 mph - N/A   Partly Cloudy
6:51 AM 33.1 °F 23.9 °F 25.0 °F 72% 29.92 in 10.0 mi South 12.7 mph - N/A   Mostly Cloudy
7:51 AM 34.0 °F 24.2 °F 26.1 °F 73% 29.92 in 10.0 mi SSW 15.0 mph 19.6 mph N/A   Mostly Cloudy
8:51 AM 36.0 °F 26.7 °F 26.1 °F 67% 29.91 in 10.0 mi South 15.0 mph - N/A   Mostly Cloudy
9:51 AM 39.0 °F 31.0 °F 28.9 °F 67% 29.88 in 10.0 mi South 13.8 mph - N/A   Mostly Cloudy
10:51 AM 43.0 °F 36.8 °F 30.9 °F 62% 29.88 in 10.0 mi SSW 11.5 mph - N/A   Mostly Cloudy
11:51 AM 43.0 °F 36.4 °F 32.0 °F 65% 29.83 in 10.0 mi SSW 12.7 mph 23.0 mph N/A   Overcast
12:51 PM 44.1 °F 38.6 °F 33.1 °F 65% 29.81 in 10.0 mi SSW 10.4 mph - N/A   Overcast
1:51 PM 46.0 °F 39.6 °F 32.0 °F 58% 29.78 in 10.0 mi SSW 15.0 mph - N/A   Overcast
2:51 PM 46.9 °F - 32.0 °F 56% 29.78 in 10.0 mi SW 12.7 mph - N/A   Overcast
3:51 PM 46.9 °F - 33.1 °F 59% 29.79 in 10.0 mi SW 10.4 mph - N/A   Overcast
4:51 PM 48.0 °F - 34.0 °F 58% 29.80 in 10.0 mi WSW 10.4 mph - N/A   Overcast
5:51 PM 46.0 °F 39.0 °F 37.0 °F 71% 29.83 in 8.0 mi WNW 17.3 mph 28.8 mph N/A   Overcast
6:51 PM 43.0 °F 36.4 °F 37.9 °F 82% 29.88 in 7.0 mi West 12.7 mph - 0.00 in   Overcast
7:51 PM 43.0 °F 36.8 °F 37.0 °F 80% 29.89 in 9.0 mi West 11.5 mph - N/A   Overcast
8:28 PM 42.8 °F 36.6 °F 35.6 °F 76% 29.87 in 9.0 mi WNW 11.5 mph - N/A   Overcast
8:51 PM 42.1 °F 35.7 °F 36.0 °F 79% 29.91 in 10.0 mi West 11.5 mph - N/A   Overcast
9:51 PM 42.1 °F 37.1 °F 36.0 °F 79% 29.91 in 10.0 mi West 8.1 mph - N/A   Overcast
10:36 PM 42.8 °F 36.2 °F 35.6 °F 76% 29.90 in 10.0 mi West 12.7 mph - N/A   Overcast
10:51 PM 42.1 °F 36.1 °F 35.1 °F 76% 29.93 in 10.0 mi West 10.4 mph - N/A   Overcast
11:51 PM 42.1 °F 36.6 °F 35.1 °F 76% 29.93 in 10.0 mi West 9.2 mph - N/A   Overcast